RH
46 29 26 51 20 17 15 9 5 3 4 2 2 2 2 2 2 2 2 2 2 3 7 13 10 12 20 38 33 37 30 33 47 46 62 66 64 48 40 41 41 36 38 48 56 64 66
37 22 23 49 21 16 18 8 6 3 4 3 2 2 2 2 2 2 2 2 2 2 4 14 13 11 13 31 31 39 33 32 43 45 44 63 71 73 64 45 33 37 39 43 48 44 52
20 22 26 46 23 22 18 11 8 3 2 4 2 2 2 2 2 2 2 2 2 2 4 12 14 11 11 24 30 41 38 32 35 36 55 65 67 80 76 66 41 35 41 44 41 44 47
19 21 27 48 37 20 19 16 12 8 4 4 3 3 2 2 2 2 2 3 3 3 4 11 14 12 13 16 32 37 43 35 35 33 53 69 62 70 77 69 67 42 38 34 44 40 29
18 24 29 38 75 20 18 18 17 15 8 5 5 3 3 2 2 2 3 4 4 4 6 11 14 13 13 13 26 36 39 31 44 47 58 62 57 58 65 72 68 71 64 45 39 33 34
21 25 31 31 80 35 24 16 18 21 16 8 7 4 4 2 2 2 4 4 5 5 7 10 13 13 11 14 24 28 37 35 50 54 49 45 42 41 49 55 51 54 67 68 48 46 38
27 28 35 40 77 46 31 16 14 18 19 18 7 7 4 4 3 3 4 5 6 7 8 11 16 17 16 14 20 28 34 34 42 48 56 51 45 44 43 51 50 59 64 53 38 46 55
34 29 51 37 79 72 38 29 16 14 15 19 16 8 7 4 4 4 4 4 10 10 13 20 23 22 19 18 18 21 32 30 34 41 50 54 48 44 44 40 41 47 48 41 41 38 44
42 36 61 51 61 90 48 38 24 20 19 16 20 18 8 7 4 5 5 5 7 12 21 22 24 21 18 16 16 16 21 28 38 48 52 57 50 49 51 47 45 46 47 50 49 51 48
49 49 49 64 51 100 63 59 44 28 21 19 16 21 20 8 7 5 6 6 6 8 15 22 23 27 19 16 16 17 18 35 49 52 47 47 48 44 46 46 46 45 40 36 34 38 37
61 62 57 80 68 73 96 55 66 36 32 38 21 17 23 22 12 8 7 6 8 8 8 15 27 35 27 20 16 16 18 23 36 43 40 45 43 43 45 46 51 54 52 51 51 49 43
64 76 78 99 83 55 100 75 88 63 38 27 35 21 18 24 20 16 10 8 6 8 10 9 12 19 29 24 20 20 20 22 29 36 39 39 38 40 45 48 47 44 42 44 45 47 47
79 78 86 98 100 87 70 100 84 79 43 41 38 31 22 18 21 22 23 13 10 8 9 11 11 12 15 22 24 22 21 21 23 27 32 32 36 40 42 42 40 38 39 40 40 38 36
62 83 71 100 100 100 74 100 100 66 81 56 40 41 33 21 17 19 24 29 21 12 10 11 11 12 13 16 21 22 23 23 24 26 27 29 34 37 38 35 33 32 33 31 30 28 22
74 80 93 87 100 100 100 76 100 100 78 74 60 52 49 33 22 15 18 24 23 29 20 17 14 14 14 12 14 16 20 24 25 26 28 30 30 31 30 29 30 26 18 15 14 14 15
76 95 100 100 100 98 100 84 100 98 78 99 92 75 46 45 35 22 20 17 21 25 28 34 26 21 16 16 18 18 16 16 14 16 15 16 16 16 15 16 16 16 17 17 18 21 23
91 95 100 100 100 90 98 100 92 100 95 93 100 95 75 45 42 35 27 22 18 21 25 25 27 35 34 27 27 24 20 24 26 25 24 23 23 24 27 30 30 34 37 40 42 48 78
100 100 100 100 100 100 91 100 80 80 100 96 100 100 90 77 56 43 37 32 24 22 21 29 31 27 26 30 39 36 30 27 34 36 42 53 61 69 80 83 92 95 97 94 91 91 93
100 100 100 100 100 100 91 100 100 100 92 97 100 99 100 78 81 75 66 47 37 31 26 21 23 27 32 30 30 33 36 42 44 40 38 41 46 50 55 68 70 71 82 92 93 90 100
86 98 100 100 95 73 76 98 100 100 100 100 100 100 100 100 80 64 82 81 62 45 34 26 25 32 28 35 35 31 29 30 33 36 36 41 46 51 51 50 53 56 61 61 57 58 71
100 100 93 100 100 97 89 74 100 100 100 100 100 100 100 100 98 98 74 71 70 67 53 44 37 27 24 35 33 39 36 37 35 31 34 38 41 40 42 45 53 60 66 66 65 69 69
98 100 94 97 100 97 94 100 91 100 100 100 100 100 99 100 100 100 100 98 84 81 71 60 59 48 41 31 31 36 44 42 41 41 41 35 32 30 32 38 40 40 41 42 43 51 57
100 100 100 94 100 93 91 90 100 82 68 100 100 100 100 100 100 100 100 100 100 99 85 78 70 70 59 55 53 48 46 44 47 50 47 40 40 39 40 40 44 45 48 49 45 40 43
100 100 100 100 94 98 98 94 98 100 97 66 96 100 100 98 100 100 100 100 100 100 99 100 93 78 82 75 72 70 66 64 56 52 52 56 56 48 43 44 48 46 48 53 53 49 49
100 100 100 100 100 100 100 100 91 92 99 100 98 83 100 100 100 100 100 100 100 100 96 89 95 98 86 91 86 86 82 78 75 70 63 66 56 58 58 49 46 52 50 46 51 52 53
100 100 100 100 100 100 100 99 100 100 98 100 100 100 100 100 100 100 100 100 100 100 100 100 96 89 88 93 95 94 92 80 75 71 65 69 66 64 52 46 44 49 51 55 67 66 61
100 100 100 100 100 100 100 100 93 93 99 99 100 100 100 100 100 100 100 100 100 100 100 100 100 100 100 100 100 100 100 97 98 89 82 69 66 60 53 52 49 46 46 49 57 66 64
84 91 100 93 93 78 98 100 100 100 100 93 82 94 98 100 100 100 100 100 100 100 100 100 100 100 100 100 100 100 100 100 100 100 100 86 91 86 73 72 68 58 57 57 53 55 54
73 64 55 51 55 59 70 86 84 98 100 100 91 73 83 82 100 100 100 100 100 97 95 100 100 100 100 97 99 100 100 100 93 89 81 73 65 72 66 93 91 82 69 75 75 68 62
Wind_Speed
70 81 93 94 107 115 118 91 89 80 78 66 51 39 25 15 11 5 15 25 38 48 57 66 75 85 95 95 84 77 87 93 96 96 94 90 87 84 83 76 76 75 77 81 85 90 90
74 82 93 97 109 116 126 101 95 87 80 72 53 41 27 22 17 7 6 19 32 41 54 61 69 80 87 92 84 77 78 86 93 94 94 92 88 85 81 82 78 76 77 74 76 80 84
74 83 92 98 112 116 128 111 105 99 85 82 60 46 32 26 25 17 7 9 18 29 46 59 62 71 77 89 85 77 76 79 80 90 91 90 89 86 85 83 80 79 77 75 74 74 72
76 82 92 99 106 116 125 124 113 111 100 90 75 59 41 33 32 27 17 10 11 20 39 51 56 61 73 81 83 80 79 76 70 77 87 89 89 89 85 84 82 81 78 76 75 74 74
76 82 90 98 101 115 117 130 126 115 112 97 84 66 54 43 35 34 25 15 11 18 34 45 50 54 65 72 82 82 80 77 64 67 75 83 87 88 87 84 83 83 80 79 77 77 75
74 80 87 95 99 109 116 125 131 128 111 107 89 73 60 53 43 36 30 19 13 14 30 39 45 48 52 60 72 78 79 73 66 66 64 63 70 82 86 87 85 82 84 83 79 77 77
71 77 83 90 95 106 113 120 127 135 124 112 102 84 73 60 48 41 34 26 21 11 12 22 29 32 36 48 62 72 78 72 65 62 59 57 56 57 65 77 86 87 85 86 84 81 84
70 74 77 87 91 98 107 113 119 124 134 121 111 97 83 71 56 43 40 33 25 19 13 14 17 21 24 35 47 62 71 69 67 63 57 56 56 55 53 55 66 80 87 83 82 81 84
69 72 73 81 88 92 102 109 117 120 127 133 121 110 97 80 64 48 47 38 27 27 20 11 11 12 18 23 31 45 59 65 63 62 59 57 55 52 50 47 49 56 66 74 81 84 83
66 69 73 77 82 86 94 100 106 115 118 125 129 119 105 94 77 58 44 44 35 25 23 15 9 10 10 18 25 33 46 58 63 61 57 55 54 49 50 52 52 54 58 61 67 72 74
63 65 69 73 74 83 86 93 97 107 115 118 123 126 117 101 93 74 58 42 42 34 21 18 17 16 13 11 16 24 35 44 57 61 58 55 51 48 50 51 51 53 54 56 57 60 61
59 63 66 68 70 78 79 85 89 96 105 112 114 116 119 113 99 95 75 60 51 42 30 22 17 15 14 16 15 21 29 36 47 55 55 50 48 48 49 50 50 52 52 53 54 54 53
56 60 60 63 62 71 75 76 82 88 96 101 105 109 113 115 117 102 97 86 65 50 42 33 31 24 14 11 14 16 19 27 35 41 45 45 46 48 51 51 49 48 48 51 51 53 53
53 57 58 57 59 62 69 70 75 80 85 90 96 101 105 109 108 116 105 98 91 71 54 43 36 31 29 18 10 10 14 18 24 30 36 40 44 44 43 44 44 45 46 46 45 45 45
49 52 53 56 58 59 59 68 67 73 78 83 87 94 101 103 106 106 115 106 100 90 81 68 55 46 40 32 26 17 12 7 8 12 18 25 28 30 32 32 33 34 34 34 32 30 30
47 51 51 51 51 55 59 61 64 66 71 76 80 84 90 96 99 102 106 104 109 104 92 87 79 68 56 44 40 35 27 22 15 11 9 10 12 14 16 16 15 15 12 13 14 13 14
45 48 48 49 48 53 55 53 61 60 63 69 73 78 81 86 88 94 96 96 100 100 102 95 91 83 77 65 54 47 37 33 30 26 21 17 14 13 13 11 10 11 11 10 9 7 8
44 45 47 45 43 45 51 48 53 56 54 62 64 69 73 78 81 86 87 90 94 95 96 94 95 95 82 79 72 69 62 51 41 38 35 33 32 33 32 28 25 23 23 22 18 14 10
42 42 44 43 40 43 48 42 47 49 52 54 54 59 66 72 75 76 77 82 85 87 88 91 88 90 91 85 78 76 71 65 60 55 47 40 31 30 30 28 24 23 22 20 17 16 12
36 39 40 38 42 45 43 39 38 42 46 50 49 48 59 62 67 67 69 72 75 77 78 80 83 83 82 83 82 81 78 73 65 63 58 53 46 42 38 34 30 24 19 14 9 5 1
36 37 38 32 37 38 36 35 37 38 39 42 45 42 49 49 60 59 63 64 66 67 70 72 74 74 78 76 76 76 76 76 73 72 66 58 57 51 45 40 36 34 29 26 24 19 16
36 36 38 35 30 39 39 33 30 39 37 35 38 37 44 43 50 51 53 55 58 58 60 63 66 68 69 71 72 72 70 70 71 69 67 67 65 60 57 48 42 38 31 28 25 23 22
37 38 40 35 32 43 43 38 34 31 34 34 38 37 40 40 43 44 49 50 52 52 54 56 58 59 61 61 62 64 64 65 65 64 63 64 61 60 56 53 49 46 41 37 34 28 25
34 37 37 38 42 45 43 44 37 36 35 34 40 40 39 40 41 43 44 45 49 48 50 49 51 54 54 56 55 56 57 58 59 58 58 56 54 58 59 59 53 47 46 45 42 38 35
41 40 40 41 40 42 45 45 48 46 39 36 36 40 41 43 39 42 43 43 44 45 45 47 45 45 49 48 48 48 50 51 51 54 55 53 55 54 55 55 55 51 50 47 43 44 41
50 51 51 54 52 45 47 42 44 49 48 42 38 38 41 45 46 40 41 40 42 42 43 43 43 43 44 44 46 49 49 50 51 52 52 52 53 52 55 55 58 55 54 54 48 47 44
58 59 60 60 57 53 51 53 51 49 48 48 46 44 44 48 48 46 43 43 39 39 41 42 39 41 42 38 39 42 47 51 50 51 50 52 53 53 54 54 56 57 57 56 53 51 50
66 67 66 65 62 60 58 54 50 49 49 51 51 52 50 48 50 50 48 45 43 40 38 38 39 42 44 43 42 40 39 43 46 49 49 51 54 56 55 54 53 56 56 57 57 55 56
74 73 72 69 68 65 65 62 61 55 54 55 52 56 57 55 52 52 53 52 50 47 46 41 39 42 42 45 45 45 44 45 43 45 49 51 55 59 57 56 57 56 56 55 56 58 58
Wind_Direction
360 3 7 7 10 11 6 6 9 10 12 8 1 2 2 5 358 281 208 209 212 204 201 207 209 213 215 219 216 217 220 221 221 223 224 225 227 229 231 232 234 236 238 240 242 244 244
2 5 7 9 11 14 11 9 15 18 19 15 10 11 24 31 29 38 199 201 212 212 198 199 206 210 212 215 215 216 219 220 221 222 224 224 226 227 229 230 233 235 238 238 242 244 245
4 6 8 10 13 17 16 11 16 18 22 21 22 21 26 43 48 47 80 185 210 214 198 195 202 208 208 212 213 213 218 219 222 222 221 225 227 228 229 231 233 235 236 238 240 244 246
6 9 10 9 12 18 20 20 19 20 21 22 24 27 31 42 56 58 68 104 167 197 194 193 198 204 208 210 212 214 218 219 221 222 221 224 226 228 231 232 234 235 237 239 241 244 245
8 9 11 11 11 18 20 23 24 23 24 23 24 29 29 37 47 62 68 81 126 173 185 193 197 204 205 208 211 214 217 218 218 221 224 226 228 229 230 233 235 237 239 240 240 241 243
10 11 14 14 13 17 21 23 26 28 26 27 25 29 35 39 43 56 59 73 103 155 182 194 199 202 206 210 213 217 218 218 216 221 225 227 230 230 232 234 237 239 240 243 244 248 249
11 13 14 15 15 15 21 22 26 26 29 30 28 28 35 38 43 48 56 59 62 116 183 199 203 207 208 211 214 217 221 220 217 219 223 226 229 231 234 236 236 238 240 242 244 245 249
10 15 15 17 16 15 19 21 23 27 26 29 32 30 33 37 39 45 49 50 61 64 120 159 178 196 207 213 218 220 222 220 219 217 221 227 231 234 238 239 239 240 239 243 246 248 250
9 14 18 18 18 17 18 21 20 23 25 28 30 33 33 38 39 45 45 49 65 73 78 123 157 179 189 196 208 214 221 223 220 222 225 229 232 236 242 242 243 243 242 243 245 247 248
9 12 18 17 20 18 19 19 22 22 26 27 30 32 34 35 39 42 45 52 57 84 97 110 108 118 148 182 190 201 210 218 222 226 231 231 232 236 240 239 243 244 244 245 246 248 251
7 12 16 16 19 21 18 18 22 23 21 23 29 32 34 37 39 42 46 54 58 60 80 102 105 105 108 140 176 187 197 207 218 225 227 231 233 236 236 238 239 241 243 245 247 250 255
6 7 15 16 17 20 20 19 20 21 22 22 24 29 34 35 38 41 44 49 55 60 70 76 80 96 111 126 153 180 190 198 209 218 224 229 231 233 239 239 240 244 247 249 253 257 261
4 6 14 15 15 17 19 19 17 18 22 21 23 24 28 34 37 41 42 45 51 58 67 72 65 61 69 107 133 155 184 197 204 211 217 221 228 233 233 236 245 252 257 259 261 262 263
3 7 13 11 14 13 19 19 16 15 19 22 20 22 23 28 33 39 45 44 46 49 56 66 66 67 69 79 101 143 162 183 200 210 218 226 232 237 245 253 257 259 259 261 263 265 265
1 3 8 12 10 11 14 20 15 14 16 19 21 22 21 23 27 34 42 45 46 49 51 55 56 64 72 75 84 99 107 135 191 222 227 234 242 246 249 254 255 257 259 260 258 256 256
357 0 5 8 11 10 9 16 16 12 14 16 17 21 21 22 23 28 37 39 43 48 51 52 54 55 59 69 80 89 98 102 113 120 161 184 201 212 222 232 239 238 236 231 225 223 223
352 353 0 3 6 8 9 8 13 13 13 12 13 18 23 22 21 24 30 34 39 41 47 51 52 54 55 57 60 63 69 78 84 88 95 103 114 121 128 130 142 150 156 162 171 162 123
346 347 353 358 1 2 6 3 9 13 13 10 14 16 20 23 23 22 24 28 30 36 41 43 45 49 52 56 57 57 57 60 66 66 72 79 83 88 88 86 80 78 71 71 70 66 68
344 345 348 353 356 359 360 2 4 7 9 8 13 14 13 17 19 23 25 25 26 30 34 37 43 45 48 53 55 56 57 57 57 58 59 64 71 68 70 71 73 79 79 69 62 59 35
342 345 345 350 351 355 358 359 1 5 359 9 11 11 8 11 13 18 21 24 25 27 31 33 34 36 41 44 49 51 53 54 55 54 54 53 55 56 55 55 54 52 47 41 39 55 336
332 335 340 344 347 352 356 1 354 358 3 1 6 6 6 9 10 15 15 17 19 25 27 29 31 33 32 37 41 45 47 48 50 49 50 50 48 49 49 49 49 45 40 35 32 21 1
322 326 332 336 336 340 345 350 355 348 353 353 355 0 358 4 4 8 12 12 14 18 23 26 26 26 29 29 30 34 38 42 42 42 44 45 43 41 42 43 44 41 36 28 20 13 13
317 319 327 327 321 327 332 338 339 343 343 347 348 351 356 357 0 4 3 6 9 13 17 18 19 21 23 26 27 29 30 31 34 35 36 35 37 37 36 34 34 37 38 34 30 21 14
315 317 321 319 324 326 323 324 327 330 331 335 335 341 344 349 351 354 358 359 360 3 7 13 14 14 16 19 22 24 25 26 27 28 29 31 31 30 28 27 27 27 24 26 26 22 20
291 297 305 312 313 319 316 313 317 320 323 326 327 328 332 337 339 342 346 350 353 355 358 1 5 8 10 14 17 19 22 21 22 21 19 22 22 24 21 20 20 21 18 16 17 15 13
286 291 296 302 303 309 311 308 307 313 313 311 316 318 322 325 331 327 334 339 342 346 349 352 355 358 2 6 6 7 9 9 11 12 12 12 13 14 13 13 11 11 10 9 6 6 5
279 282 287 294 297 300 302 306 306 308 308 308 306 307 310 313 318 321 323 327 332 336 339 341 346 350 351 354 357 357 357 359 360 360 3 3 2 4 5 4 5 4 3 2 1 359 357
279 281 284 285 289 294 294 297 298 298 298 299 303 305 307 307 308 311 311 315 320 321 325 332 333 336 339 341 343 345 349 353 351 351 349 354 352 352 354 353 356 356 356 357 357 354 353
276 278 278 280 282 285 289 290 291 288 287 292 296 298 301 302 304 305 306 308 309 310 315 318 321 322 326 330 332 335 339 340 342 341 341 345 346 341 345 346 343 346 347 347 348 348 348